Weather History for Monett, MO

Change the Weather History Date:

Thursday, November 8, 2012

  Actual Average (KJLN) Record (KJLN)
Temperature  
Mean Temperature 52 °F 52 °F  
Max Temperature 69 °F 63 °F 83 °F (1980)
Min Temperature 35 °F 41 °F 8 °F (1991)
Degree Days  
Heating Degree Days 13 13  
Month to date heating degree days 97  
Since 1 July heating degree days 349  
Cooling Degree Days 0 0  
Month to date cooling degree days 5  
Year to date cooling degree days 1696  
Growing Degree Days 2 (Base 50)    
Moisture  
Dew Point 37 °F    
Average Humidity 60    
Maximum Humidity 87    
Minimum Humidity 33    
Precipitation  
Precipitation 0.00 in 0.13 in 1.91 in (2011)
Month to date precipitation 1.05  
Year to date precipitation 41.00  
Sea Level Pressure  
Sea Level Pressure 30.04 in    
Wind  
Wind Speed 10 mph (SE)    
Max Wind Speed 17 mph    
Max Gust Speed 23 mph    
Visibility 10 miles    
Events      
T = Trace of Precipitation, MM = Missing Value Source: NWS Daily Summary

Daily Weather History Graph

Daily Weather History Graph

Search for Another Location

Airport:

Trip Planner

Search our weather history database for the weather conditions in past years. The results will help you decide how hot, cold, wet, or windy it might be!

Date:

Astronomy

Nov. 08, 2012 Rise Set
Actual Time 6:47 AM CST 5:11 PM CST
Civil Twilight 6:20 AM CST 5:38 PM CST
Nautical Twilight 5:49 AM CST 6:09 PM CST
Astronomical Twilight 5:18 AM CST 6:40 PM CST
Moon 12:52 AM CST (11/8) 1:45 PM CST (11/8)
Length of Visible Light 11h 18m
Length of Day
10h 23m
Waning Crescent, 32% of the Moon is Illuminated
Nov 8
Waning Crescent
Nov 13
New
Nov 20
First Quarter
Nov 28
Full
Dec 6
Last Quarter

Hourly Weather History & Observations

Time (CST) Temp. Windchill Dew Point Humidity Pressure Visibility Wind Dir Wind Speed Gust Speed Precip Events Conditions
12:15 AM 37.4 °F 32.1 °F 32.0 °F 81% 30.12 in 10.0 mi ESE 6.9 mph - N/A   Clear
12:35 AM 37.4 °F 32.1 °F 32.0 °F 81% 30.13 in 10.0 mi ESE 6.9 mph - N/A   Clear
12:55 AM 37.4 °F 32.8 °F 32.0 °F 81% 30.13 in 10.0 mi SE 5.8 mph - N/A   Clear
1:15 AM 37.4 °F 32.1 °F 32.0 °F 81% 30.13 in 10.0 mi SE 6.9 mph - N/A   Clear
1:35 AM 37.4 °F 32.1 °F 32.0 °F 81% 30.13 in 10.0 mi ESE 6.9 mph - N/A   Clear
1:55 AM 37.4 °F 30.8 °F 32.0 °F 81% 30.12 in 10.0 mi ESE 9.2 mph - N/A   Clear
2:15 AM 37.4 °F 31.4 °F 32.0 °F 81% 30.13 in 10.0 mi ESE 8.1 mph - N/A   Clear
2:35 AM 37.4 °F 30.8 °F 32.0 °F 81% 30.13 in 10.0 mi SE 9.2 mph - N/A   Clear
2:55 AM 37.4 °F 30.8 °F 32.0 °F 81% 30.12 in 10.0 mi SE 9.2 mph - N/A   Clear
3:15 AM 37.4 °F 30.8 °F 32.0 °F 81% 30.12 in 10.0 mi SE 9.2 mph - N/A   Clear
3:35 AM 37.4 °F 31.4 °F 32.0 °F 81% 30.12 in 10.0 mi ESE 8.1 mph - N/A   Clear
3:55 AM 37.4 °F 30.3 °F 32.0 °F 81% 30.11 in 10.0 mi ESE 10.4 mph - N/A   Clear
4:15 AM 37.4 °F 30.3 °F 32.0 °F 81% 30.10 in 10.0 mi SE 10.4 mph - N/A   Clear
4:35 AM 37.4 °F 30.8 °F 32.0 °F 81% 30.11 in 10.0 mi ESE 9.2 mph - N/A   Clear
5:15 AM 35.6 °F 28.0 °F 32.0 °F 87% 30.10 in 10.0 mi SE 10.4 mph - N/A   Clear
5:55 AM 37.4 °F 30.3 °F 32.0 °F 81% 30.10 in 10.0 mi SE 10.4 mph - N/A   Clear
6:15 AM 37.4 °F 31.4 °F 32.0 °F 81% 30.10 in 10.0 mi SE 8.1 mph - N/A   Clear
6:55 AM 37.4 °F 30.8 °F 32.0 °F 81% 30.10 in 10.0 mi SE 9.2 mph - N/A   Clear
7:15 AM 37.4 °F 30.8 °F 32.0 °F 81% 30.11 in 10.0 mi SE 9.2 mph - N/A   Clear
7:35 AM 39.2 °F 32.0 °F 33.8 °F 81% 30.12 in 10.0 mi SE 11.5 mph - N/A   Clear
7:55 AM 41.0 °F 35.2 °F 33.8 °F 76% 30.12 in 10.0 mi SE 9.2 mph - N/A   Clear
8:15 AM 42.8 °F 37.0 °F 33.8 °F 70% 30.12 in 10.0 mi SE 10.4 mph - N/A   Clear
8:35 AM 44.6 °F 39.2 °F 35.6 °F 71% 30.11 in 10.0 mi SE 10.4 mph - N/A   Clear
8:55 AM 48.2 °F - 35.6 °F 62% 30.11 in 10.0 mi SSE 12.7 mph 18.4 mph N/A   Clear
9:15 AM 50.0 °F - 35.6 °F 58% 30.11 in 10.0 mi SSE 11.5 mph - N/A   Clear
9:35 AM 51.8 °F - 35.6 °F 54% 30.11 in 10.0 mi SSE 12.7 mph - N/A   Clear
9:55 AM 53.6 °F - 35.6 °F 51% 30.12 in 10.0 mi SSE 11.5 mph 18.4 mph N/A   Clear
10:35 AM 55.4 °F - 35.6 °F 47% 30.10 in 10.0 mi SSE 13.8 mph - N/A   Clear
10:55 AM 57.2 °F - 37.4 °F 48% 30.09 in 10.0 mi SSE 10.4 mph - N/A   Clear
11:15 AM 59.0 °F - 39.2 °F 48% 30.08 in 10.0 mi SSE 9.2 mph - N/A   Clear
11:35 AM 60.8 °F - 39.2 °F 45% 30.07 in 10.0 mi SSE 10.4 mph - N/A   Clear
11:55 AM 60.8 °F - 41.0 °F 48% 30.05 in 10.0 mi SE 15.0 mph - N/A   Clear
12:15 PM 62.6 °F - 39.2 °F 42% 30.04 in 10.0 mi SSE 13.8 mph - N/A   Clear
12:35 PM 64.4 °F - 41.0 °F 42% 30.03 in 10.0 mi SE 11.5 mph - N/A   Clear
12:55 PM 66.2 °F - 41.0 °F 40% 30.02 in 10.0 mi SSE 10.4 mph - N/A   Clear
1:15 PM 68.0 °F - 37.4 °F 33% 30.02 in 10.0 mi South 16.1 mph 20.7 mph N/A   Clear
1:35 PM 68.0 °F - 37.4 °F 33% 30.01 in 10.0 mi South 15.0 mph 23.0 mph N/A   Clear
1:55 PM 69.8 °F - 39.2 °F 33% 30.00 in 10.0 mi South 17.3 mph 21.9 mph N/A   Clear
2:15 PM 69.8 °F - 39.2 °F 33% 29.99 in 10.0 mi SSE 17.3 mph 20.7 mph N/A   Clear
2:35 PM 69.8 °F - 41.0 °F 35% 29.99 in 10.0 mi South 13.8 mph - N/A   Clear
2:55 PM 69.8 °F - 42.8 °F 38% 29.98 in 10.0 mi South 11.5 mph 17.3 mph N/A   Clear
3:15 PM 69.8 °F - 42.8 °F 38% 29.98 in 10.0 mi South 13.8 mph - N/A   Clear
3:35 PM 69.8 °F - 42.8 °F 38% 29.97 in 10.0 mi South 16.1 mph 21.9 mph N/A   Clear
3:55 PM 68.0 °F - 42.8 °F 40% 29.97 in 10.0 mi South 9.2 mph 17.3 mph N/A   Clear
4:15 PM 68.0 °F - 42.8 °F 40% 29.96 in 10.0 mi SSE 11.5 mph - N/A   Clear
4:35 PM 66.2 °F - 42.8 °F 43% 29.96 in 10.0 mi SSE 11.5 mph - N/A   Clear
4:55 PM 64.4 °F - 42.8 °F 45% 29.96 in 10.0 mi SSE 9.2 mph 16.1 mph N/A   Clear
5:15 PM 62.6 °F - 42.8 °F 48% 29.96 in 10.0 mi SSE 12.7 mph - N/A   Clear
5:35 PM 62.6 °F - 42.8 °F 48% 29.95 in 10.0 mi SSE 12.7 mph 18.4 mph N/A   Clear
5:55 PM 60.8 °F - 42.8 °F 52% 29.95 in 10.0 mi SE 11.5 mph - N/A   Clear
6:15 PM 59.0 °F - 42.8 °F 55% 29.96 in 10.0 mi SE 10.4 mph - N/A   Clear
6:35 PM 59.0 °F - 41.0 °F 51% 29.96 in 10.0 mi SSE 11.5 mph 18.4 mph N/A   Clear
6:55 PM 59.0 °F - 41.0 °F 51% 29.96 in 10.0 mi SE 15.0 mph 20.7 mph N/A   Clear
7:15 PM 59.0 °F - 39.2 °F 48% 29.96 in 10.0 mi SSE 15.0 mph - N/A   Clear
7:35 PM 57.2 °F - 39.2 °F 51% 29.95 in 10.0 mi SSE 17.3 mph 21.9 mph N/A   Clear
7:55 PM 55.4 °F - 39.2 °F 54% 29.96 in 10.0 mi SSE 10.4 mph 17.3 mph N/A   Clear
8:15 PM 55.4 °F - 39.2 °F 54% 29.98 in 10.0 mi SSE 9.2 mph - N/A   Clear
8:35 PM 53.6 °F - 39.2 °F 58% 29.99 in 10.0 mi SSE 8.1 mph - N/A   Clear
8:55 PM 53.6 °F - 39.2 °F 58% 29.99 in 10.0 mi SE 8.1 mph - N/A   Clear
9:15 PM 51.8 °F - 39.2 °F 62% 29.99 in 10.0 mi SE 8.1 mph - N/A   Clear
9:35 PM 51.8 °F - 39.2 °F 62% 29.99 in 10.0 mi SSE 9.2 mph - N/A   Clear
9:55 PM 51.8 °F - 39.2 °F 62% 29.99 in 10.0 mi SSE 8.1 mph - N/A   Clear
10:15 PM 50.0 °F - 39.2 °F 66% 29.98 in 10.0 mi SE 9.2 mph - N/A   Clear
10:35 PM 50.0 °F - 39.2 °F 66% 29.98 in 10.0 mi SE 9.2 mph - N/A   Clear
10:55 PM 50.0 °F - 39.2 °F 66% 29.98 in 10.0 mi SE 9.2 mph - N/A   Clear
11:15 PM 51.8 °F - 39.2 °F 62% 29.97 in 10.0 mi SSE 11.5 mph - N/A   Clear
11:35 PM 53.6 °F - 41.0 °F 62% 29.97 in 10.0 mi SSE 13.8 mph 20.7 mph N/A   Clear
11:55 PM 53.6 °F - 41.0 °F 62% 29.97 in 10.0 mi South 16.1 mph 20.7 mph N/A   Clear